| time (UTC) | temp F | wind direction | speed MPH | gust MPH | rain 1hr in | rain 24hr in | rain mn in | humidity % | barometer mb |
| 20260901080501 | 58 | 172 | 0.0 | 4.0 | 0.00 | 0.00 | 0.00 | 84 | 1010.5 |
| 20260901075504 | 57 | 155 | 0.0 | 2.0 | 0.00 | 0.00 | 0.00 | 84 | 1010.4 |
| 20260901074949 | 57 | 228 | 0.0 | 3.0 | 0.00 | 0.00 | 0.00 | 84 | 1010.3 |
| 20260901073459 | 57 | 168 | 0.0 | 2.0 | 0.00 | 0.00 | 0.00 | 84 | 1010.3 |
| 20260901072459 | 57 | 197 | 0.0 | 1.0 | 0.00 | 0.00 | 0.00 | 84 | 1010.2 |
| 20260901071455 | 58 | 148 | 0.0 | 0.0 | 0.00 | 0.00 | 0.00 | 83 | 1010.3 |
| 20260901071033 | 58 | 169 | 0.0 | 3.0 | 0.00 | 0.00 | 0.00 | 83 | 1010.4 |
| 20260901065501 | 58 | 168 | 0.0 | 1.0 | 0.00 | 0.00 | 0.00 | 82 | 1010.3 |
| 20260901064455 | 58 | 183 | 0.0 | 0.0 | 0.00 | 0.00 | 0.00 | 82 | 1010.3 |
| 20260901063454 | 59 | 214 | 0.0 | 2.0 | 0.00 | 0.00 | 0.00 | 81 | 1010.3 |
| 20260901062454 | 59 | 212 | 0.0 | 2.0 | 0.00 | 0.00 | 0.00 | 81 | 1010.3 |
| 20260901061447 | 59 | 159 | 0.0 | 4.0 | 0.00 | 0.00 | 0.00 | 80 | 1010.4 |
| 20260901060923 | 59 | 198 | 0.0 | 3.0 | 0.00 | 0.00 | 0.00 | 80 | 1010.5 |
| 20260901055447 | 60 | 213 | 1.0 | 4.0 | 0.00 | 0.00 | 0.00 | 80 | 1010.5 |
| 20260901054448 | 60 | 206 | 0.0 | 2.0 | 0.00 | 0.00 | 0.00 | 79 | 1010.5 |
| 20260901053448 | 60 | 223 | 0.0 | 4.0 | 0.00 | 0.00 | 0.00 | 79 | 1010.4 |
| 20260901052449 | 60 | 301 | 0.0 | 3.0 | 0.00 | 0.00 | 0.00 | 78 | 1010.3 |
| 20260901052419 | 61 | 209 | 1.0 | 4.0 | 0.00 | 0.00 | 0.00 | 77 | 1010.3 |
| 20260901050448 | 61 | 306 | 1.0 | 3.0 | 0.00 | 0.00 | 0.00 | 76 | 1010.3 |
| 20260901045449 | 62 | 292 | 1.0 | 5.0 | 0.00 | 0.00 | 0.00 | 76 | 1010.0 |
| 20260901044441 | 62 | 313 | 3.0 | 10.0 | 0.00 | 0.00 | 0.00 | 74 | 1009.9 |
| 20260901043441 | 63 | 322 | 2.0 | 7.0 | 0.00 | 0.00 | 0.00 | 72 | 1009.8 |
| 20260901042443 | 64 | 346 | 2.0 | 8.0 | 0.00 | 0.00 | 0.00 | 70 | 1009.4 |
| 20260901041441 | 65 | 336 | 2.0 | 10.0 | 0.00 | 0.00 | 0.00 | 67 | 1009.3 |
| 20260901040441 | 66 | 15 | 1.0 | 7.0 | 0.00 | 0.00 | 0.00 | 66 | 1009.1 |
| 20260901035443 | 66 | 340 | 1.0 | 6.0 | 0.00 | 0.00 | 0.00 | 64 | 1008.9 |
| 20260901034441 | 67 | 313 | 1.0 | 4.0 | 0.00 | 0.00 | 0.00 | 63 | 1008.8 |
| 20260901033442 | 68 | 298 | 1.0 | 5.0 | 0.00 | 0.00 | 0.00 | 62 | 1008.6 |
| 20260901032440 | 69 | 347 | 1.0 | 4.0 | 0.00 | 0.00 | 0.00 | 61 | 1008.3 |
| 20260901031441 | 69 | 355 | 2.0 | 6.0 | 0.00 | 0.00 | 0.00 | 59 | 1008.2 |
| 20260901030441 | 70 | 339 | 1.0 | 6.0 | 0.00 | 0.00 | 0.00 | 58 | 1008.1 |
| 20260901025442 | 71 | 324 | 2.0 | 6.0 | 0.00 | 0.00 | 0.00 | 56 | 1007.9 |
| 20260901024439 | 72 | 324 | 2.0 | 6.0 | 0.00 | 0.00 | 0.00 | 55 | 1007.9 |
| 20260901023439 | 73 | 0 | 1.0 | 5.0 | 0.00 | 0.00 | 0.00 | 54 | 1007.3 |
| 20260901022440 | 74 | 285 | 2.0 | 9.0 | 0.00 | 0.00 | 0.00 | 53 | 1007.1 |
| 20260901021441 | 74 | 290 | 1.0 | 8.0 | 0.00 | 0.00 | 0.00 | 53 | 1006.9 |
| 20260901020441 | 75 | 285 | 2.0 | 7.0 | 0.00 | 0.00 | 0.00 | 52 | 1006.8 |
| 20260901015441 | 76 | 289 | 2.0 | 8.0 | 0.00 | 0.00 | 0.00 | 51 | 1006.7 |
| 20260901014440 | 77 | 145 | 1.0 | 6.0 | 0.00 | 0.00 | 0.00 | 50 | 1006.6 |
| 20260901013442 | 78 | 298 | 2.0 | 5.0 | 0.00 | 0.00 | 0.00 | 48 | 1006.4 |
| 20260901012441 | 80 | 296 | 1.0 | 6.0 | 0.00 | 0.00 | 0.00 | 46 | 1006.4 |
| 20260901011440 | 81 | 285 | 1.0 | 7.0 | 0.00 | 0.00 | 0.00 | 45 | 1006.3 |
| 20260901010923 | 82 | 252 | 1.0 | 7.0 | 0.00 | 0.00 | 0.00 | 44 | 1006.3 |
| 20260901005439 | 83 | 313 | 1.0 | 7.0 | 0.00 | 0.00 | 0.00 | 43 | 1006.2 |
| 20260901004439 | 83 | 290 | 2.0 | 6.0 | 0.00 | 0.00 | 0.00 | 43 | 1006.3 |
| 20260901003439 | 83 | 306 | 2.0 | 9.0 | 0.00 | 0.00 | 0.00 | 42 | 1006.2 |
| 20260901002441 | 83 | 299 | 2.0 | 9.0 | 0.00 | 0.00 | 0.00 | 39 | 1006.1 |
| 20260901001442 | 83 | 296 | 1.0 | 4.0 | 0.00 | 0.00 | 0.00 | 39 | 1006.0 |
| 20260901000443 | 83 | 333 | 2.0 | 5.0 | 0.00 | 0.00 | 0.00 | 39 | 1005.9 |
| 20260901000322 | 83 | 19 | 1.0 | 4.0 | 0.00 | 0.00 | 0.00 | 39 | 1006.0 |
| 20260831235629 | 83 | 11 | 2.0 | 6.0 | 0.00 | 0.00 | 0.00 | 39 | 1006.0 |
| 20260831233439 | 82 | 290 | 2.0 | 4.0 | 0.00 | 0.00 | 0.00 | 39 | 1006.1 |
| 20260831232439 | 81 | 327 | 2.0 | 5.0 | 0.00 | 0.00 | 0.00 | 39 | 1006.0 |
| 20260831231439 | 82 | 302 | 1.0 | 5.0 | 0.00 | 0.00 | 0.00 | 38 | 1006.0 |
| 20260831230438 | 81 | 290 | 2.0 | 7.0 | 0.00 | 0.00 | 0.00 | 38 | 1006.4 |
| 20260831225909 | 81 | 313 | 1.0 | 7.0 | 0.00 | 0.00 | 0.00 | 40 | 1006.5 |
| 20260831225640 | 81 | 308 | 2.0 | 5.0 | 0.00 | 0.00 | 0.00 | 39 | 1006.5 |
| 20260831223435 | 80 | 291 | 2.0 | 9.0 | 0.00 | 0.00 | 0.00 | 42 | 1006.7 |
| 20260831222922 | 80 | 248 | 2.0 | 9.0 | 0.00 | 0.00 | 0.00 | 42 | 1006.8 |
| 20260831221432 | 80 | 312 | 1.0 | 6.0 | 0.00 | 0.00 | 0.00 | 43 | 1006.9 |
| 20260831220434 | 79 | 336 | 1.0 | 5.0 | 0.00 | 0.00 | 0.00 | 45 | 1007.0 |
| 20260831215433 | 78 | 329 | 3.0 | 10.0 | 0.00 | 0.00 | 0.00 | 45 | 1007.3 |
| 20260831215258 | 78 | 294 | 3.0 | 7.0 | 0.00 | 0.00 | 0.00 | 46 | 1007.4 |
| 20260831214608 | 78 | 298 | 2.0 | 4.0 | 0.00 | 0.00 | 0.00 | 46 | 1007.3 |
| 20260831212429 | 77 | 328 | 4.0 | 11.0 | 0.00 | 0.00 | 0.00 | 48 | 1007.5 |
| 20260831211431 | 77 | 322 | 2.0 | 6.0 | 0.00 | 0.00 | 0.00 | 49 | 1007.6 |
| 20260831210911 | 76 | 342 | 2.0 | 10.0 | 0.00 | 0.00 | 0.00 | 50 | 1007.6 |
| 20260831205431 | 76 | 331 | 1.0 | 4.0 | 0.00 | 0.00 | 0.00 | 51 | 1007.6 |
| 20260831204431 | 76 | 299 | 1.0 | 3.0 | 0.00 | 0.00 | 0.00 | 50 | 1007.9 |
| 20260831203430 | 76 | 296 | 2.0 | 4.0 | 0.00 | 0.00 | 0.00 | 49 | 1007.8 |
| 20260831202430 | 75 | 33 | 1.0 | 5.0 | 0.00 | 0.00 | 0.00 | 50 | 1008.0 |
| 20260831201429 | 75 | 271 | 1.0 | 6.0 | 0.00 | 0.00 | 0.00 | 53 | 1007.9 |
| 20260831200429 | 74 | 309 | 0.0 | 3.0 | 0.00 | 0.00 | 0.00 | 53 | 1008.0 |
| 20260831195430 | 73 | 283 | 1.0 | 3.0 | 0.00 | 0.00 | 0.00 | 54 | 1008.3 |
| 20260831194429 | 72 | 306 | 1.0 | 7.0 | 0.00 | 0.00 | 0.00 | 55 | 1008.5 |
| 20260831193429 | 72 | 287 | 2.0 | 7.0 | 0.00 | 0.00 | 0.00 | 55 | 1008.7 |
| 20260831192430 | 72 | 259 | 1.0 | 4.0 | 0.00 | 0.00 | 0.00 | 57 | 1008.8 |
| 20260831191432 | 71 | 345 | 2.0 | 5.0 | 0.00 | 0.00 | 0.00 | 56 | 1008.9 |
| 20260831190429 | 70 | 310 | 2.0 | 8.0 | 0.00 | 0.00 | 0.00 | 57 | 1009.1 |
| 20260831185430 | 70 | 327 | 1.0 | 6.0 | 0.00 | 0.00 | 0.00 | 57 | 1009.3 |
| 20260831184429 | 69 | 325 | 1.0 | 5.0 | 0.00 | 0.00 | 0.00 | 58 | 1009.3 |
| 20260831183429 | 68 | 333 | 0.0 | 2.0 | 0.00 | 0.00 | 0.00 | 58 | 1009.4 |
| 20260831182429 | 68 | 288 | 1.0 | 5.0 | 0.00 | 0.00 | 0.00 | 60 | 1009.5 |
| 20260831181430 | 67 | 306 | 2.0 | 8.0 | 0.00 | 0.00 | 0.00 | 60 | 1009.5 |
| 20260831180429 | 66 | 277 | 2.0 | 5.0 | 0.00 | 0.00 | 0.00 | 60 | 1009.5 |
| 20260831175429 | 66 | 284 | 1.0 | 6.0 | 0.00 | 0.00 | 0.00 | 61 | 1009.5 |
| 20260831174429 | 66 | 314 | 0.0 | 7.0 | 0.00 | 0.00 | 0.00 | 63 | 1009.5 |
| 20260831173429 | 64 | 301 | 0.0 | 2.0 | 0.00 | 0.00 | 0.00 | 65 | 1009.6 |
| 20260831172429 | 63 | 291 | 0.0 | 2.0 | 0.00 | 0.00 | 0.00 | 66 | 1009.6 |
| 20260831171430 | 62 | 131 | 0.0 | 1.0 | 0.00 | 0.00 | 0.00 | 67 | 1009.7 |
| 20260831170430 | 61 | 298 | 0.0 | 3.0 | 0.00 | 0.00 | 0.00 | 70 | 1009.8 |
| 20260831165429 | 60 | 226 | 0.0 | 1.0 | 0.00 | 0.00 | 0.00 | 73 | 1009.8 |
| 20260831164428 | 59 | 296 | 0.0 | 2.0 | 0.00 | 0.00 | 0.00 | 75 | 1009.9 |
| 20260831163429 | 58 | 220 | 0.0 | 0.0 | 0.00 | 0.00 | 0.00 | 78 | 1010.0 |
| 20260831162429 | 57 | 220 | 0.0 | 1.0 | 0.00 | 0.00 | 0.00 | 78 | 1010.1 |
| 20260831161427 | 56 | 234 | 0.0 | 2.0 | 0.00 | 0.00 | 0.00 | 79 | 1010.4 |
| 20260831160427 | 55 | 168 | 0.0 | 2.0 | 0.00 | 0.00 | 0.00 | 80 | 1010.5 |
| 20260831155435 | 55 | 149 | 0.0 | 3.0 | 0.00 | 0.00 | 0.00 | 81 | 1010.7 |
| 20260831155359 | 54 | 207 | 1.0 | 4.0 | 0.00 | 0.00 | 0.00 | 83 | 1010.6 |
| 20260831153913 | 52 | 159 | 0.0 | 2.0 | 0.00 | 0.00 | 0.00 | 85 | 1010.6 |
| 20260831152429 | 51 | 145 | 0.0 | 2.0 | 0.00 | 0.00 | 0.00 | 86 | 1010.7 |
| 20260831151428 | 50 | 150 | 0.0 | 2.0 | 0.00 | 0.00 | 0.00 | 88 | 1010.7 |
| 20260831150427 | 49 | 159 | 0.0 | 0.0 | 0.00 | 0.00 | 0.00 | 89 | 1010.6 |
| 20260831145427 | 49 | 135 | 0.0 | 0.0 | 0.00 | 0.00 | 0.00 | 89 | 1010.4 |
| 20260831144430 | 49 | 135 | 0.0 | 0.0 | 0.00 | 0.00 | 0.00 | 90 | 1010.4 |
| 20260831143423 | 48 | 135 | 0.0 | 1.0 | 0.00 | 0.00 | 0.00 | 90 | 1010.4 |
| 20260831142423 | 48 | 171 | 0.0 | 0.0 | 0.00 | 0.00 | 0.00 | 90 | 1010.5 |
| 20260831141422 | 48 | 171 | 0.0 | 0.0 | 0.00 | 0.00 | 0.00 | 90 | 1010.4 |
| 20260831140423 | 48 | 171 | 0.0 | 0.0 | 0.00 | 0.00 | 0.00 | 90 | 1010.4 |
| 20260831135421 | 48 | 171 | 0.0 | 1.0 | 0.00 | 0.00 | 0.00 | 90 | 1010.3 |
| 20260831134420 | 48 | 155 | 0.0 | 0.0 | 0.00 | 0.00 | 0.00 | 90 | 1010.4 |
| 20260831133910 | 48 | 162 | 0.0 | 1.0 | 0.00 | 0.00 | 0.00 | 89 | 1010.4 |
| 20260831132418 | 48 | 190 | 0.0 | 1.0 | 0.00 | 0.00 | 0.00 | 89 | 1010.4 |
| 20260831131420 | 48 | 205 | 0.0 | 0.0 | 0.00 | 0.00 | 0.00 | 89 | 1010.3 |
| 20260831130415 | 49 | 198 | 0.0 | 1.0 | 0.00 | 0.00 | 0.00 | 89 | 1010.4 |
| 20260831125416 | 49 | 315 | 0.0 | 0.0 | 0.00 | 0.00 | 0.00 | 90 | 1010.5 |
| 20260831124901 | 49 | 315 | 0.0 | 0.0 | 0.00 | 0.00 | 0.00 | 91 | 1010.5 |
| 20260831123851 | 48 | 315 | 0.0 | 0.0 | 0.00 | 0.00 | 0.00 | 90 | 1010.6 |
| 20260831122419 | 48 | 314 | 0.0 | 0.0 | 0.00 | 0.00 | 0.00 | 90 | 1010.6 |
| 20260831121411 | 48 | 315 | 0.0 | 0.0 | 0.00 | 0.00 | 0.00 | 89 | 1010.7 |
| 20260831120409 | 48 | 315 | 0.0 | 0.0 | 0.00 | 0.00 | 0.00 | 88 | 1010.6 |
| 20260831115407 | 49 | 315 | 0.0 | 0.0 | 0.00 | 0.00 | 0.00 | 88 | 1010.7 |
| 20260831114407 | 49 | 315 | 0.0 | 0.0 | 0.00 | 0.00 | 0.00 | 88 | 1010.7 |
| 20260831113405 | 49 | 315 | 0.0 | 0.0 | 0.00 | 0.00 | 0.00 | 88 | 1010.7 |
| 20260831112402 | 49 | 315 | 0.0 | 0.0 | 0.00 | 0.00 | 0.00 | 87 | 1010.7 |
| 20260831111405 | 50 | 315 | 0.0 | 0.0 | 0.00 | 0.00 | 0.00 | 87 | 1010.7 |
| 20260831110840 | 50 | 315 | 0.0 | 0.0 | 0.00 | 0.00 | 0.00 | 88 | 1010.7 |
| 20260831105403 | 50 | 315 | 0.0 | 0.0 | 0.00 | 0.00 | 0.00 | 86 | 1010.8 |
| 20260831104405 | 50 | 315 | 0.0 | 0.0 | 0.00 | 0.00 | 0.00 | 85 | 1010.7 |
| 20260831103403 | 51 | 315 | 0.0 | 0.0 | 0.00 | 0.00 | 0.00 | 85 | 1010.7 |
| 20260831102401 | 51 | 315 | 0.0 | 0.0 | 0.00 | 0.00 | 0.00 | 84 | 1010.8 |
| 20260831101401 | 52 | 315 | 0.0 | 0.0 | 0.00 | 0.00 | 0.00 | 83 | 1010.8 |
| 20260831100401 | 52 | 315 | 0.0 | 0.0 | 0.00 | 0.00 | 0.00 | 84 | 1011.0 |
| 20260831095401 | 51 | 315 | 0.0 | 0.0 | 0.00 | 0.00 | 0.00 | 84 | 1011.1 |
| 20260831094401 | 51 | 315 | 0.0 | 0.0 | 0.00 | 0.00 | 0.00 | 83 | 1011.1 |
| 20260831093402 | 52 | 315 | 0.0 | 0.0 | 0.00 | 0.00 | 0.00 | 83 | 1011.3 |
| 20260831093323 | 52 | 315 | 0.0 | 0.0 | 0.00 | 0.00 | 0.00 | 82 | 1011.3 |
| 20260831091401 | 53 | 315 | 0.0 | 0.0 | 0.00 | 0.00 | 0.00 | 80 | 1011.4 |
| 20260831090400 | 53 | 315 | 0.0 | 0.0 | 0.00 | 0.00 | 0.00 | 79 | 1011.4 |
| 20260831085401 | 54 | 315 | 0.0 | 0.0 | 0.00 | 0.00 | 0.00 | 78 | 1011.5 |
| 20260831084816 | 55 | 315 | 0.0 | 0.0 | 0.00 | 0.00 | 0.00 | 78 | 1011.7 |
| 20260831084540 | 54 | 315 | 0.0 | 0.0 | 0.00 | 0.00 | 0.00 | 78 | 1011.5 |
| 20260831082403 | 55 | 315 | 0.0 | 0.0 | 0.00 | 0.00 | 0.00 | 79 | 1011.7 |
| 20260831081401 | 55 | 315 | 0.0 | 0.0 | 0.00 | 0.00 | 0.00 | 78 | 1011.7 |